DMSP 5D-2 F13 DEB, 40565

Orbit data source: Space-Track

DMSP 5D-2 F13 DEB, 40565 is space debris in SSO originally from a launch on Fri, 24 Mar 1995 UTC launched from the Air Force Western Test Range (AFWTR). Debris objects in space refer to the collection of defunct objects orbiting the Earth. Examples of debris include non-operational satellites, rocket bodies, and fragments generated from explosions, collisions, or faulty payload assembly.

Loading next visibility...
Identifier
40565, 1995-015DY
Orbit
SSO
Country
Flag of USUS
Related business
Manufacturer
Unknown
Mission
Spacecraft
Bus & Motor
Unknown
Mass
Unknown
Launch date (UTC)
1995-03-24 (31 years ago)
Launch vehicle
Unknown
Launch site
Air Force Western Test Range (AFWTR)
Object type
Payload
Rocket body
Debris
Shape & HBR
Unknown shape, 0.1 m
Radar Cross Section
Small (<0.1 m²)

Expand to show TLE details & history
Last TLE update: 5 days ago

TLE from 5 days ago
0 DMSP 5D-2 F13 DEB
1 40565U 95015DY  25338.58355742  .00003729  00000-0  28978-2 0  9997
2 40565  98.7894  96.5576 0167747  69.3855 292.5205 13.86668958537115
Epoch: 2025-12-04T14:00Z
TLE epoch observation values (Epoch: 2025-12-04T14:00:19.361Z)
Latitude
0.00003°
Longitude
172.83901°
Altitude
897.939 km
Speed
7.426 km/s
True Right ascension
06h 26m 13s
True Declination
0° 00' 00"
Sunlit
Object was in full shadow at epoch
Visualization orbit readout
Latitude
Unknown
Longitude
Unknown
Altitude
Unknown
Speed
Unknown
Apparent Right ascension
Unknown
Apparent Declination
Unknown
Sunlit
N/A
Visualization observer readout
Local Sidereal Time
19:17:30
Azimuth
Unknown
Elevation
Unknown
Doppler factor
Unknown
Orbital elements
Apogee altitude
1,060.252 km
Perigee altitude
814.815 km
Semi-major axis
7,315.671 km
Eccentricity
0.01677
Inclination
98.7894°
RAAN
96.5576°
Arg. of periapsis
69.3855°
True anomaly
290.73077°
Mean anomaly
292.5205°
Eccentric anomaly
291.62704°
Mean motion
3.46866 °/min
Orbital period
103.79 mins
BSTAR
0.0028978
Loading maneuver chart data...
Computing Atmospheric mass density...

Documentation

Showing up to 5 results
|